COSMOS 1275 DEB, 14504

Orbit data source: Space-Track

COSMOS 1275 DEB, 14504 is space debris in LEO originally from a launch on Thu, 04 Jun 1981 UTC launched from the Plesetsk Missile And Space Complex (PKMTR). Debris objects in space refer to the collection of defunct objects orbiting the Earth. Examples of debris include non-operational satellites, rocket bodies, and fragments generated from explosions, collisions, or faulty payload assembly.

Loading next visibility...
Identifier
14504, 1981-053JJ
Orbit
LEO
Country
Flag of CISCIS
Related business
Manufacturer
Unknown
Mission
Spacecraft
Bus & Motor
Unknown
Mass
Unknown
Launch date (UTC)
1981-06-04 (45 years ago)
Launch vehicle
Unknown
Launch site
Plesetsk Missile And Space Complex (PKMTR)
Object type
Payload
Rocket body
Debris
Shape & HBR
Unknown shape, 0.1 m
Radar Cross Section
Small (<0.1 m²)

Expand to show TLE details & history
Last TLE update: 21 hours ago

TLE from 21 hours ago
0 COSMOS 1275 DEB
1 14504U 81053JJ  26035.12253209  .00000628  00000-0  36107-3 0  9997
2 14504  83.1894  74.8654 0022360  94.1846 322.1686 14.07642697263766
Epoch: 2026-02-04T02:56Z
TLE epoch observation values (Epoch: 2026-02-04T02:56:26.772Z)
Latitude
55.69502°
Longitude
-93.51216°
Altitude
863.942 km
Speed
7.432 km/s
True Right ascension
05h 39m 34s
True Declination
55° 32' 13"
Sunlit
Object was in full shadow at epoch
Visualization orbit readout
Latitude
Unknown
Longitude
Unknown
Altitude
Unknown
Speed
Unknown
Apparent Right ascension
Unknown
Apparent Declination
Unknown
Sunlit
N/A
Visualization observer readout
Local Sidereal Time
01:40:51
Azimuth
Unknown
Elevation
Unknown
Doppler factor
Unknown
Orbital elements
Apogee altitude
880.739 km
Perigee altitude
848.349 km
Semi-major axis
7,242.681 km
Eccentricity
0.00224
Inclination
83.1894°
RAAN
74.8654°
Arg. of periapsis
94.1846°
True anomaly
322.0111°
Mean anomaly
322.1686°
Eccentric anomaly
322.08988°
Mean motion
3.52123 °/min
Orbital period
102.24 mins
BSTAR
0.00036107
Loading maneuver chart data...
Computing Atmospheric mass density...

Documentation

Showing up to 5 results
|